Time,TemperatureF,DewpointF,PressureIn,WindDirection,WindDirectionDegrees,WindSpeedMPH,WindSpeedGustMPH,Humidity,HourlyPrecipIn,Conditions,Clouds,dailyrainin,SolarRadiationWatts/m^2,SoftwareType,DateUTC
2013-08-29 00:01:00,67.0,56.0,-100.00,West,268,10.0,17.0,68,0.00,,,0.00,0.000000,,2013-08-29 07:01:00,
2013-08-29 00:02:00,67.0,53.0,-100.00,West,269,10.0,16.0,61,0.00,,,0.00,0.000000,,2013-08-29 07:02:00,
2013-08-29 00:42:00,67.0,53.0,-100.00,West,269,10.0,16.0,61,0.00,,,0.00,0.000000,,2013-08-29 07:42:00,
2013-08-29 00:53:00,67.0,53.0,-100.00,West,269,10.0,16.0,61,0.00,,,0.00,0.000000,,2013-08-29 07:53:00,
2013-08-29 01:22:00,67.0,52.0,-100.00,West,266,11.0,19.0,59,0.00,,,0.00,0.000000,,2013-08-29 08:22:00,
2013-08-29 01:32:00,67.0,52.0,-100.00,West,266,11.0,19.0,59,0.00,,,0.00,0.000000,,2013-08-29 08:32:00,
2013-08-29 01:42:00,67.0,52.0,-100.00,West,266,11.0,19.0,59,0.00,,,0.00,0.000000,,2013-08-29 08:42:00,
2013-08-29 01:52:00,67.0,52.0,-100.00,West,266,11.0,19.0,59,0.00,,,0.00,0.000000,,2013-08-29 08:52:00,
2013-08-29 02:01:00,67.0,52.0,-100.00,West,266,11.0,19.0,59,0.00,,,0.00,0.000000,,2013-08-29 09:01:00,
2013-08-29 02:02:00,66.0,53.0,-100.00,West,269,11.0,23.0,62,0.00,,,0.00,0.000000,,2013-08-29 09:02:00,
2013-08-29 02:43:00,66.0,53.0,-100.00,West,269,11.0,23.0,62,0.00,,,0.00,0.000000,,2013-08-29 09:43:00,
2013-08-29 02:55:00,66.0,53.0,-100.00,West,269,11.0,23.0,62,0.00,,,0.00,0.000000,,2013-08-29 09:55:00,
2013-08-29 03:02:00,65.0,53.0,-100.00,West,270,11.0,21.0,64,0.00,,,0.00,0.000000,,2013-08-29 10:02:00,
2013-08-29 03:43:00,65.0,53.0,-100.00,West,270,11.0,21.0,64,0.00,,,0.00,0.000000,,2013-08-29 10:43:00,
2013-08-29 03:53:00,65.0,53.0,-100.00,West,270,11.0,21.0,64,0.00,,,0.00,0.000000,,2013-08-29 10:53:00,
2013-08-29 04:02:00,65.0,53.0,-100.00,West,266,12.0,20.0,64,0.00,,,0.00,0.000000,,2013-08-29 11:02:00,
2013-08-29 04:22:00,65.0,53.0,-100.00,West,266,12.0,20.0,64,0.00,,,0.00,0.000000,,2013-08-29 11:22:00,
2013-08-29 04:33:00,65.0,53.0,-100.00,West,266,12.0,20.0,64,0.00,,,0.00,0.000000,,2013-08-29 11:33:00,
2013-08-29 04:42:00,65.0,53.0,-100.00,West,266,12.0,20.0,64,0.00,,,0.00,0.000000,,2013-08-29 11:42:00,
2013-08-29 04:52:00,65.0,53.0,-100.00,West,266,12.0,20.0,64,0.00,,,0.00,0.000000,,2013-08-29 11:52:00,
2013-08-29 05:02:00,65.0,52.0,-100.00,West,265,11.0,22.0,63,0.00,,,0.00,0.000000,,2013-08-29 12:02:00,
2013-08-29 05:42:00,65.0,52.0,-100.00,West,265,11.0,22.0,63,0.00,,,0.00,0.000000,,2013-08-29 12:42:00,
2013-08-29 05:52:00,65.0,52.0,-100.00,West,265,11.0,22.0,63,0.00,,,0.00,0.000000,,2013-08-29 12:52:00,
2013-08-29 06:02:00,63.0,53.0,-100.00,West,271,0.0,0.0,69,0.00,,,0.00,0.000000,,2013-08-29 13:02:00,
2013-08-29 06:42:00,63.0,53.0,-100.00,West,271,0.0,0.0,69,0.00,,,0.00,0.000000,,2013-08-29 13:42:00,
2013-08-29 06:52:00,63.0,53.0,-100.00,West,271,0.0,0.0,69,0.00,,,0.00,0.000000,,2013-08-29 13:52:00,
2013-08-29 07:02:00,62.0,54.0,-100.00,WNW,286,0.0,0.0,76,0.00,,,0.00,8.000000,,2013-08-29 14:02:00,
2013-08-29 07:42:00,62.0,54.0,-100.00,WNW,286,0.0,0.0,76,0.00,,,0.00,8.000000,,2013-08-29 14:42:00,
2013-08-29 07:52:00,62.0,54.0,-100.00,WNW,286,0.0,0.0,76,0.00,,,0.00,8.000000,,2013-08-29 14:52:00,
2013-08-29 08:02:00,65.0,55.0,-100.00,WNW,285,0.0,0.0,70,0.00,,,0.00,142.000000,,2013-08-29 15:02:00,
2013-08-29 08:43:00,65.0,55.0,-100.00,WNW,285,0.0,0.0,70,0.00,,,0.00,142.000000,,2013-08-29 15:43:00,
2013-08-29 08:53:00,65.0,55.0,-100.00,WNW,285,0.0,0.0,70,0.00,,,0.00,142.000000,,2013-08-29 15:53:00,
2013-08-29 09:02:00,67.0,56.0,-100.00,West,277,0.0,0.0,68,0.00,,,0.00,342.000000,,2013-08-29 16:02:00,
2013-08-29 09:43:00,67.0,56.0,-100.00,West,277,0.0,0.0,68,0.00,,,0.00,342.000000,,2013-08-29 16:43:00,
2013-08-29 09:54:00,67.0,56.0,-100.00,West,277,0.0,0.0,68,0.00,,,0.00,342.000000,,2013-08-29 16:54:00,
2013-08-29 10:44:00,72.0,55.0,-100.00,West,272,0.0,0.0,56,0.00,,,0.00,540.000000,,2013-08-29 17:44:00,
2013-08-29 10:52:00,72.0,55.0,-100.00,West,272,0.0,0.0,56,0.00,,,0.00,540.000000,,2013-08-29 17:52:00,
2013-08-29 11:01:00,72.0,55.0,-100.00,West,272,0.0,0.0,56,0.00,,,0.00,540.000000,,2013-08-29 18:01:00,
2013-08-29 11:42:00,76.0,56.0,-100.00,NNW,329,5.0,12.0,50,0.00,,,0.00,704.000000,,2013-08-29 18:42:00,
2013-08-29 11:52:00,76.0,56.0,-100.00,NNW,329,5.0,12.0,50,0.00,,,0.00,704.000000,,2013-08-29 18:52:00,
2013-08-29 12:01:00,76.0,56.0,-100.00,NNW,329,5.0,12.0,50,0.00,,,0.00,704.000000,,2013-08-29 19:01:00,
2013-08-29 12:02:00,80.0,59.0,-100.00,East,97,5.0,11.0,48,0.00,,,0.00,826.000000,,2013-08-29 19:02:00,
2013-08-29 12:42:00,80.0,59.0,-100.00,East,97,5.0,11.0,48,0.00,,,0.00,826.000000,,2013-08-29 19:42:00,
2013-08-29 12:52:00,80.0,59.0,-100.00,East,97,5.0,11.0,48,0.00,,,0.00,826.000000,,2013-08-29 19:52:00,
2013-08-29 13:22:00,81.0,57.0,-100.00,ENE,72,4.0,13.0,44,0.00,,,0.00,854.000000,,2013-08-29 20:22:00,
2013-08-29 13:32:00,81.0,57.0,-100.00,ENE,72,4.0,13.0,44,0.00,,,0.00,854.000000,,2013-08-29 20:32:00,
2013-08-29 13:42:00,81.0,57.0,-100.00,ENE,72,4.0,13.0,44,0.00,,,0.00,854.000000,,2013-08-29 20:42:00,
2013-08-29 13:52:00,81.0,57.0,-100.00,ENE,72,4.0,13.0,44,0.00,,,0.00,854.000000,,2013-08-29 20:52:00,
2013-08-29 14:01:00,81.0,57.0,-100.00,ENE,72,4.0,13.0,44,0.00,,,0.00,854.000000,,2013-08-29 21:01:00,
2013-08-29 14:02:00,82.0,55.0,-100.00,West,276,8.0,13.0,40,0.00,,,0.00,909.000000,,2013-08-29 21:02:00,
2013-08-29 14:44:00,82.0,55.0,-100.00,West,276,8.0,13.0,40,0.00,,,0.00,909.000000,,2013-08-29 21:44:00,
2013-08-29 14:54:00,82.0,55.0,-100.00,West,276,8.0,13.0,40,0.00,,,0.00,909.000000,,2013-08-29 21:54:00,
2013-08-29 15:02:00,83.0,52.0,-100.00,WSW,254,7.0,14.0,35,0.00,,,-99.99,860.000000,,2013-08-29 22:02:00,
2013-08-29 15:24:00,83.0,52.0,-100.00,WSW,254,7.0,14.0,35,0.00,,,-99.99,860.000000,,2013-08-29 22:24:00,
2013-08-29 15:33:00,83.0,52.0,-100.00,WSW,254,7.0,14.0,35,0.00,,,-99.99,860.000000,,2013-08-29 22:33:00,
2013-08-29 15:43:00,83.0,52.0,-100.00,WSW,254,7.0,14.0,35,0.00,,,-99.99,860.000000,,2013-08-29 22:43:00,
2013-08-29 15:53:00,83.0,52.0,-100.00,WSW,254,7.0,14.0,35,0.00,,,-99.99,860.000000,,2013-08-29 22:53:00,
2013-08-29 16:02:00,83.0,52.0,-100.00,West,271,8.0,16.0,34,0.00,,,0.00,758.000000,,2013-08-29 23:02:00,
2013-08-29 16:43:00,83.0,52.0,-100.00,West,271,8.0,16.0,34,0.00,,,0.00,758.000000,,2013-08-29 23:43:00,
2013-08-29 16:53:00,83.0,52.0,-100.00,West,271,8.0,16.0,34,0.00,,,0.00,758.000000,,2013-08-29 23:53:00,
2013-08-29 17:22:00,83.0,53.0,-100.00,WSW,255,8.0,16.0,36,0.00,,,0.00,603.000000,,2013-08-30 00:22:00,
2013-08-29 17:32:00,83.0,53.0,-100.00,WSW,255,8.0,16.0,36,0.00,,,0.00,603.000000,,2013-08-30 00:32:00,
2013-08-29 17:42:00,83.0,53.0,-100.00,WSW,255,8.0,16.0,36,0.00,,,0.00,603.000000,,2013-08-30 00:42:00,
2013-08-29 17:52:00,83.0,53.0,-100.00,WSW,255,8.0,16.0,36,0.00,,,0.00,603.000000,,2013-08-30 00:52:00,
2013-08-29 18:01:00,83.0,53.0,-100.00,WSW,255,8.0,16.0,36,0.00,,,0.00,603.000000,,2013-08-30 01:01:00,
2013-08-29 18:02:00,80.0,49.0,-100.00,West,265,9.0,17.0,34,0.00,,,0.00,415.000000,,2013-08-30 01:02:00,
2013-08-29 18:42:00,80.0,49.0,-100.00,West,265,9.0,17.0,34,0.00,,,0.00,415.000000,,2013-08-30 01:42:00,
2013-08-29 18:52:00,80.0,49.0,-100.00,West,265,9.0,17.0,34,0.00,,,0.00,415.000000,,2013-08-30 01:52:00,
2013-08-29 19:02:00,76.0,54.0,-100.00,West,270,5.0,15.0,46,0.00,,,0.00,213.000000,,2013-08-30 02:02:00,
2013-08-29 19:42:00,76.0,54.0,-100.00,West,270,5.0,15.0,46,0.00,,,0.00,213.000000,,2013-08-30 02:42:00,
2013-08-29 19:52:00,76.0,54.0,-100.00,West,270,5.0,15.0,46,0.00,,,0.00,213.000000,,2013-08-30 02:52:00,
2013-08-29 20:02:00,69.0,55.0,-100.00,West,271,8.0,13.0,60,0.00,,,0.00,32.000000,,2013-08-30 03:02:00,
2013-08-29 20:43:00,69.0,55.0,-100.00,West,271,8.0,13.0,60,0.00,,,0.00,32.000000,,2013-08-30 03:43:00,
2013-08-29 20:55:00,69.0,55.0,-100.00,West,271,8.0,13.0,60,0.00,,,0.00,32.000000,,2013-08-30 03:55:00,
2013-08-29 21:02:00,69.0,51.0,-100.00,WNW,285,12.0,19.0,53,0.00,,,0.00,0.000000,,2013-08-30 04:02:00,
2013-08-29 21:44:00,69.0,51.0,-100.00,WNW,285,12.0,19.0,53,0.00,,,0.00,0.000000,,2013-08-30 04:44:00,
2013-08-29 21:54:00,69.0,51.0,-100.00,WNW,285,12.0,19.0,53,0.00,,,0.00,0.000000,,2013-08-30 04:54:00,
2013-08-29 22:02:00,68.0,52.0,-100.00,WNW,282,14.0,19.0,57,0.00,,,0.00,0.000000,,2013-08-30 05:02:00,
2013-08-29 22:23:00,68.0,52.0,-100.00,WNW,282,14.0,19.0,57,0.00,,,0.00,0.000000,,2013-08-30 05:23:00,
2013-08-29 22:35:00,68.0,52.0,-100.00,WNW,282,14.0,19.0,57,0.00,,,0.00,0.000000,,2013-08-30 05:35:00,
2013-08-29 22:42:00,68.0,52.0,-100.00,WNW,282,14.0,19.0,57,0.00,,,0.00,0.000000,,2013-08-30 05:42:00,
2013-08-29 22:52:00,68.0,52.0,-100.00,WNW,282,14.0,19.0,57,0.00,,,0.00,0.000000,,2013-08-30 05:52:00,
2013-08-29 23:02:00,69.0,55.0,-100.00,West,279,14.0,21.0,60,0.00,,,0.00,0.000000,,2013-08-30 06:02:00,
2013-08-29 23:22:00,69.0,55.0,-100.00,West,279,14.0,21.0,60,0.00,,,0.00,0.000000,,2013-08-30 06:22:00,
2013-08-29 23:32:00,69.0,55.0,-100.00,West,279,14.0,21.0,60,0.00,,,0.00,0.000000,,2013-08-30 06:32:00,
2013-08-29 23:42:00,69.0,55.0,-100.00,West,279,14.0,21.0,60,0.00,,,0.00,0.000000,,2013-08-30 06:42:00,
2013-08-29 23:53:00,69.0,55.0,-100.00,West,279,14.0,21.0,60,0.00,,,0.00,0.000000,,2013-08-30 06:53:00,